TimeAKDT,TemperatureF,Dew PointF,Humidity,Sea Level PressureIn,VisibilityMPH,Wind Direction,Wind SpeedMPH,Gust SpeedMPH,PrecipitationIn,Events,Conditions,WindDirDegrees,DateUTC
12:28 AM,24.8,24.8,100,29.93,5.0,WSW,29.9,-,0.00,Snow,Blowing Snow,250,2013-04-24 08:28:00
12:53 AM,25.0,24.1,96,29.93,3.0,WSW,29.9,36.8,0.00,Snow,Blowing Snow,250,2013-04-24 08:53:00
1:53 AM,25.0,24.1,96,29.91,2.5,WSW,26.5,-,0.00,Snow,Light Snow,250,2013-04-24 09:53:00
2:02 AM,24.8,24.8,100,29.91,2.5,West,24.2,33.4,0.00,Snow,Light Snow,260,2013-04-24 10:02:00
2:04 AM,24.8,24.8,100,29.91,3.0,WSW,24.2,33.4,0.00,Snow,Light Snow,250,2013-04-24 10:04:00
2:10 AM,24.8,24.8,100,29.91,2.5,West,27.6,33.4,0.00,Snow,Light Snow,260,2013-04-24 10:10:00
2:37 AM,24.8,24.8,100,29.91,0.8,West,26.5,-,0.00,Snow,Light Snow,260,2013-04-24 10:37:00
2:45 AM,24.8,24.8,100,29.91,1.0,West,25.3,-,0.00,Snow,Light Snow,260,2013-04-24 10:45:00
2:53 AM,25.0,24.1,96,29.91,1.5,West,25.3,32.2,0.00,Snow,Light Snow,260,2013-04-24 10:53:00
3:36 AM,24.8,23.0,93,29.90,2.0,West,26.5,-,0.00,Snow,Light Snow,270,2013-04-24 11:36:00
3:45 AM,24.8,23.0,93,29.90,1.5,West,25.3,-,0.00,Snow,Light Snow,270,2013-04-24 11:45:00
3:53 AM,24.1,23.0,96,29.91,1.2,West,25.3,32.2,0.00,Snow,Light Snow,270,2013-04-24 11:53:00
4:06 AM,24.8,23.0,93,29.91,2.0,West,24.2,-,0.00,Snow,Light Snow,270,2013-04-24 12:06:00
4:14 AM,24.8,23.0,93,29.91,1.8,West,24.2,-,0.00,Snow,Light Snow,270,2013-04-24 12:14:00
4:19 AM,24.8,23.0,93,29.91,2.0,West,25.3,-,0.00,Snow,Light Snow,270,2013-04-24 12:19:00
4:53 AM,23.0,21.9,96,29.91,1.8,West,23.0,-,0.00,Snow,Light Snow,270,2013-04-24 12:53:00
5:08 AM,23.0,21.2,93,29.91,2.0,West,23.0,32.2,0.00,Snow,Light Snow,280,2013-04-24 13:08:00
5:22 AM,21.2,19.4,93,29.92,1.0,WNW,20.7,-,0.00,Snow,Light Snow,290,2013-04-24 13:22:00
5:29 AM,21.2,19.4,93,29.92,2.0,WNW,19.6,-,0.00,Snow,Light Snow,290,2013-04-24 13:29:00
5:32 AM,21.2,19.4,93,29.92,3.0,WNW,19.6,-,0.00,Snow,Light Snow,290,2013-04-24 13:32:00
5:43 AM,21.2,19.4,93,29.93,2.0,WNW,17.3,-,0.00,Snow,Light Snow,300,2013-04-24 13:43:00
5:53 AM,19.9,19.0,96,29.94,1.5,WNW,16.1,-,0.00,Snow,Light Snow,290,2013-04-24 13:53:00
6:05 AM,19.4,17.6,93,29.94,3.0,WNW,16.1,-,0.00,Snow,Light Snow,290,2013-04-24 14:05:00
6:19 AM,19.4,17.6,93,29.95,2.0,WNW,19.6,26.5,0.00,Snow,Light Snow,300,2013-04-24 14:19:00
6:27 AM,19.4,17.6,93,29.95,1.5,WNW,19.6,26.5,0.00,Snow,Light Snow,290,2013-04-24 14:27:00
6:53 AM,18.0,17.1,96,29.96,1.5,WNW,18.4,-,0.00,Snow,Light Snow,290,2013-04-24 14:53:00
7:01 AM,17.6,17.6,100,29.96,3.0,WNW,17.3,-,0.00,Snow,Light Snow,290,2013-04-24 15:01:00
7:24 AM,17.6,15.8,93,29.97,7.0,WNW,18.4,-,0.00,,Overcast,290,2013-04-24 15:24:00
7:31 AM,15.8,14.0,93,29.97,8.0,WNW,17.3,-,0.00,,Overcast,290,2013-04-24 15:31:00
7:53 AM,16.0,12.9,88,29.98,9.0,WNW,18.4,-,0.00,,Overcast,290,2013-04-24 15:53:00
8:53 AM,14.0,12.0,92,30.00,5.0,West,19.6,-,N/A,Snow,Blowing Snow,280,2013-04-24 16:53:00
9:53 AM,12.9,10.9,92,30.03,6.0,WNW,18.4,-,N/A,,Clear,290,2013-04-24 17:53:00
10:53 AM,12.0,9.0,88,30.06,7.0,WNW,16.1,-,N/A,,Clear,290,2013-04-24 18:53:00
11:29 AM,12.2,8.6,85,30.07,5.0,WNW,17.3,-,N/A,Snow,Blowing Snow,290,2013-04-24 19:29:00
11:53 AM,12.0,9.0,88,30.09,5.0,WNW,17.3,-,N/A,Snow,Blowing Snow,290,2013-04-24 19:53:00
12:05 PM,12.2,8.6,85,30.09,5.0,WNW,18.4,-,N/A,Snow,Blowing Snow,290,2013-04-24 20:05:00
12:53 PM,12.0,9.0,88,30.11,4.0,WNW,18.4,-,N/A,Snow,Blowing Snow,290,2013-04-24 20:53:00
1:53 PM,12.0,8.1,84,30.14,5.0,WNW,19.6,-,N/A,Snow,Blowing Snow,290,2013-04-24 21:53:00
2:53 PM,12.0,8.1,84,30.17,7.0,WNW,18.4,-,N/A,,Mostly Cloudy,290,2013-04-24 22:53:00
3:53 PM,10.9,7.0,84,30.19,6.0,WNW,20.7,27.6,N/A,Snow,Blowing Snow,290,2013-04-24 23:53:00
4:53 PM,10.0,6.1,84,30.22,5.0,WNW,20.7,26.5,N/A,Snow,Blowing Snow,290,2013-04-25 00:53:00
5:41 PM,10.4,5.0,79,30.24,8.0,WNW,18.4,-,N/A,,Scattered Clouds,290,2013-04-25 01:41:00
5:53 PM,10.0,5.0,80,30.25,8.0,WNW,19.6,-,N/A,,Scattered Clouds,290,2013-04-25 01:53:00
6:53 PM,9.0,5.0,84,30.26,10.0,WNW,19.6,25.3,N/A,,Clear,290,2013-04-25 02:53:00
7:53 PM,7.0,3.9,87,30.28,10.0,WNW,17.3,-,N/A,,Clear,300,2013-04-25 03:53:00
8:53 PM,6.1,3.0,87,30.30,10.0,West,15.0,-,N/A,,Overcast,280,2013-04-25 04:53:00
9:53 PM,3.9,1.0,88,30.32,10.0,West,11.5,-,N/A,,Scattered Clouds,280,2013-04-25 05:53:00
10:53 PM,1.9,-0.9,88,30.33,10.0,West,12.7,-,N/A,,Mostly Cloudy,270,2013-04-25 06:53:00
11:53 PM,1.9,-0.9,88,30.35,10.0,West,12.7,-,N/A,,Overcast,270,2013-04-25 07:53:00